Hourly Data Report for July 15, 2017

QUALICUM BEACH AIRPORT
BRITISH COLUMBIA

49°20'14.000" N
124°23'38.000" W
58.20 m
1026562
71766
VOQ

Download Data

Hourly Data (July 2017)
Hourly Data Report for July 15, 2017
TIME
LST
Temp Definition
°C
Dew Point Definition
°C
Rel Hum Definition
%
Precip. Amount Definition
mm

Wind Dir Definition
10's deg

Wind Spd Definition
km/h
Visibility Definition
km
Stn Press Definition
kPa
Hmdx Definition


Wind Chill Definition


Weather Definition


00:00 14.7 9.6 71 0.0 29 2   101.14     LegendNANA
01:00 14.1 8.7 70 0.0 22 3   101.17     LegendNANA
02:00 12.3 9.4 82 0.0 17 3   101.21     LegendNANA
03:00 12.0 7.7 75 0.0 20 4   101.22     LegendNANA
04:00 10.2 7.9 85 0.0 19 2   101.28     LegendNANA
05:00 10.0 6.7 80 0.0 17 2   101.31     LegendNANA
06:00 13.9 8.3 69 0.0 29 5   101.35     LegendNANA
07:00 18.2 8.6 54 0.0 4 3   101.37     LegendNANA
08:00 18.8 9.1 53 0.0 10 8   101.39     LegendNANA
09:00 19.5 8.3 48 0.0 10 10   101.40     LegendNANA
10:00 19.3 9.8 54 0.0 7 10   101.42     LegendNANA
11:00 19.7 10.8 57 0.0 3 9   101.45     LegendNANA
12:00 20.2 12.1 60 0.0 6 9   101.45     LegendNANA
13:00 20.2 10.8 55 0.0 7 9   101.46     LegendNANA
14:00 20.7 11.3 55 0.0 2 4   101.45     LegendNANA
15:00 20.2 10.6 54 0.0 3 5   101.41     LegendNANA
16:00 20.3 10.4 53 0.0 10 6   101.39     LegendNANA
17:00 21.3 5.9 37 0.0 26 7   101.35     LegendNANA
18:00 20.1 5.4 38 0.0 28 17   101.36     LegendNANA
19:00 18.9 6.0 43 0.0 28 12   101.33     LegendNANA
20:00 17.5 6.8 49 0.0 27 10   101.32     LegendNANA
21:00 16.6 6.7 52 0.0 25 10   101.33     LegendNANA
22:00 16.1 7.1 55 0.0 28 10   101.32     LegendNANA
23:00 15.9 7.1 56 0.0 28 11   101.35     LegendNANA

Notes on Data Quality.

Legend

  • E = Estimated
  • M = Missing
  • NA = Not Available*
  • [empty] = Indicates an unobserved value
Date modified: